| time (UTC) | temp C | wind direction | speed KPH | gust KPH | rain 1hr cm | rain 24hr cm | rain mn cm | humidity % | barometer mb |
| 20260507210534 | 21 | 228 | 16.1 | 27.4 | 0.00 | 0.00 | 0.00 | 37 | 1015.7 |
| 20260507210042 | 21 | 228 | 11.3 | 22.5 | 0.00 | 0.00 | 0.00 | 37 | 1015.7 |
| 20260507205534 | 21 | 228 | 9.7 | 22.5 | 0.00 | 0.00 | 0.00 | 37 | 1015.6 |
| 20260507205034 | 21 | 227 | 4.8 | 27.4 | 0.00 | 0.00 | 0.00 | 38 | 1015.7 |
| 20260507204548 | 20 | 227 | 12.9 | 29.0 | 0.00 | 0.00 | 0.00 | 37 | 1015.7 |
| 20260507204036 | 20 | 227 | 17.7 | 30.6 | 0.00 | 0.00 | 0.00 | 38 | 1015.7 |
| 20260507203534 | 20 | 232 | 16.1 | 30.6 | 0.00 | 0.00 | 0.00 | 37 | 1015.7 |
| 20260507203058 | 20 | 232 | 19.3 | 30.6 | 0.00 | 0.00 | 0.00 | 38 | 1015.9 |
| 20260507202533 | 20 | 233 | 16.1 | 29.0 | 0.00 | 0.00 | 0.00 | 38 | 1015.8 |
| 20260507202033 | 20 | 227 | 14.5 | 29.0 | 0.00 | 0.00 | 0.00 | 39 | 1015.9 |
| 20260507201555 | 20 | 236 | 12.9 | 27.4 | 0.00 | 0.00 | 0.00 | 37 | 1015.9 |
| 20260507201034 | 20 | 236 | 16.1 | 27.4 | 0.00 | 0.00 | 0.00 | 38 | 1015.9 |
| 20260507200536 | 20 | 223 | 16.1 | 30.6 | 0.00 | 0.00 | 0.00 | 41 | 1016.0 |
| 20260507195531 | 20 | 213 | 16.1 | 33.8 | 0.00 | 0.00 | 0.00 | 40 | 1016.0 |
| 20260507195033 | 20 | 215 | 22.5 | 33.8 | 0.00 | 0.00 | 0.00 | 39 | 1016.0 |
| 20260507194541 | 20 | 212 | 17.7 | 29.0 | 0.00 | 0.00 | 0.00 | 42 | 1016.0 |
| 20260507194032 | 20 | 210 | 17.7 | 32.2 | 0.00 | 0.00 | 0.00 | 42 | 1016.0 |
| 20260507193532 | 20 | 186 | 19.3 | 32.2 | 0.00 | 0.00 | 0.00 | 41 | 1016.0 |
| 20260507193050 | 20 | 190 | 16.1 | 29.0 | 0.00 | 0.00 | 0.00 | 42 | 1015.9 |
| 20260507192534 | 19 | 192 | 17.7 | 33.8 | 0.00 | 0.00 | 0.00 | 43 | 1016.1 |
| 20260507192039 | 19 | 202 | 16.1 | 33.8 | 0.00 | 0.00 | 0.00 | 42 | 1016.0 |
| 20260507191544 | 19 | 196 | 19.3 | 30.6 | 0.00 | 0.00 | 0.00 | 42 | 1016.0 |
| 20260507191035 | 19 | 206 | 16.1 | 30.6 | 0.00 | 0.00 | 0.00 | 43 | 1016.1 |
| 20260507190535 | 18 | 206 | 17.7 | 29.0 | 0.00 | 0.00 | 0.00 | 43 | 1016.1 |
| 20260507190047 | 18 | 222 | 16.1 | 33.8 | 0.00 | 0.00 | 0.00 | 44 | 1016.2 |
| 20260507185534 | 18 | 228 | 19.3 | 43.5 | 0.00 | 0.00 | 0.00 | 45 | 1016.2 |
| 20260507185031 | 18 | 228 | 25.7 | 43.5 | 0.00 | 0.00 | 0.00 | 45 | 1016.4 |
| 20260507184546 | 18 | 225 | 17.7 | 37.0 | 0.00 | 0.00 | 0.00 | 48 | 1016.3 |
| 20260507184031 | 18 | 221 | 25.7 | 35.4 | 0.00 | 0.00 | 0.00 | 47 | 1016.4 |
| 20260507183531 | 18 | 211 | 19.3 | 37.0 | 0.00 | 0.00 | 0.00 | 49 | 1016.3 |
| 20260507183038 | 18 | 181 | 17.7 | 37.0 | 0.00 | 0.00 | 0.00 | 50 | 1016.2 |
| 20260507182531 | 18 | 167 | 16.1 | 30.6 | 0.00 | 0.00 | 0.00 | 49 | 1016.3 |
| 20260507182031 | 18 | 196 | 19.3 | 30.6 | 0.00 | 0.00 | 0.00 | 50 | 1016.3 |
| 20260507181546 | 18 | 185 | 16.1 | 35.4 | 0.00 | 0.00 | 0.00 | 51 | 1016.2 |
| 20260507181034 | 17 | 190 | 22.5 | 35.4 | 0.00 | 0.00 | 0.00 | 52 | 1016.3 |
| 20260507180540 | 17 | 188 | 17.7 | 33.8 | 0.00 | 0.00 | 0.00 | 53 | 1016.3 |
| 20260507180049 | 17 | 190 | 19.3 | 35.4 | 0.00 | 0.00 | 0.00 | 55 | 1016.3 |
| 20260507175537 | 17 | 178 | 24.1 | 35.4 | 0.00 | 0.00 | 0.00 | 55 | 1016.3 |
| 20260507175033 | 17 | 174 | 19.3 | 32.2 | 0.00 | 0.00 | 0.00 | 56 | 1016.2 |
| 20260507174545 | 17 | 172 | 16.1 | 32.2 | 0.00 | 0.00 | 0.00 | 55 | 1016.4 |
| 20260507174034 | 17 | 175 | 12.9 | 29.0 | 0.00 | 0.00 | 0.00 | 57 | 1016.4 |
| 20260507173532 | 17 | 175 | 19.3 | 30.6 | 0.00 | 0.00 | 0.00 | 56 | 1016.5 |
| 20260507173044 | 16 | 171 | 20.9 | 33.8 | 0.00 | 0.00 | 0.00 | 60 | 1016.5 |
| 20260507172531 | 16 | 169 | 20.9 | 33.8 | 0.00 | 0.00 | 0.00 | 60 | 1016.6 |
| 20260507172030 | 16 | 173 | 20.9 | 32.2 | 0.00 | 0.00 | 0.00 | 60 | 1016.6 |
| 20260507171543 | 16 | 168 | 22.5 | 30.6 | 0.00 | 0.00 | 0.00 | 60 | 1016.6 |
| 20260507171031 | 16 | 171 | 17.7 | 29.0 | 0.00 | 0.00 | 0.00 | 61 | 1016.6 |
| 20260507170531 | 16 | 173 | 14.5 | 30.6 | 0.00 | 0.00 | 0.00 | 62 | 1016.7 |
| 20260507170055 | 16 | 173 | 20.9 | 30.6 | 0.00 | 0.00 | 0.00 | 62 | 1016.7 |
| 20260507165530 | 15 | 180 | 16.1 | 27.4 | 0.00 | 0.00 | 0.00 | 64 | 1016.7 |
| 20260507165034 | 16 | 181 | 17.7 | 29.0 | 0.00 | 0.00 | 0.00 | 63 | 1016.8 |
| 20260507164557 | 15 | 182 | 17.7 | 32.2 | 0.00 | 0.00 | 0.00 | 65 | 1016.7 |
| 20260507164034 | 15 | 178 | 20.9 | 32.2 | 0.00 | 0.00 | 0.00 | 66 | 1016.7 |
| 20260507163534 | 15 | 169 | 14.5 | 29.0 | 0.00 | 0.00 | 0.00 | 66 | 1016.6 |
| 20260507163044 | 15 | 169 | 19.3 | 29.0 | 0.00 | 0.00 | 0.00 | 66 | 1016.5 |
| 20260507162534 | 15 | 171 | 19.3 | 25.7 | 0.00 | 0.00 | 0.00 | 66 | 1016.5 |
| 20260507162034 | 15 | 171 | 19.3 | 25.7 | 0.00 | 0.00 | 0.00 | 66 | 1016.5 |
| 20260507161545 | 15 | 171 | 12.9 | 29.0 | 0.00 | 0.00 | 0.00 | 67 | 1016.6 |
| 20260507161034 | 15 | 172 | 17.7 | 29.0 | 0.00 | 0.00 | 0.00 | 68 | 1016.5 |
| 20260507160534 | 15 | 182 | 14.5 | 24.1 | 0.00 | 0.00 | 0.00 | 70 | 1016.5 |
| 20260507160054 | 14 | 185 | 14.5 | 24.1 | 0.00 | 0.00 | 0.00 | 69 | 1016.6 |
| 20260507155533 | 14 | 186 | 12.9 | 30.6 | 0.00 | 0.00 | 0.00 | 71 | 1016.7 |
| 20260507155037 | 14 | 186 | 17.7 | 30.6 | 0.00 | 0.00 | 0.00 | 70 | 1016.7 |
| 20260507154553 | 14 | 178 | 14.5 | 29.0 | 0.00 | 0.00 | 0.00 | 73 | 1016.4 |
| 20260507154036 | 13 | 178 | 16.1 | 29.0 | 0.00 | 0.00 | 0.00 | 72 | 1016.5 |
| 20260507153533 | 13 | 178 | 22.5 | 29.0 | 0.00 | 0.00 | 0.00 | 73 | 1016.5 |
| 20260507153045 | 13 | 159 | 17.7 | 30.6 | 0.00 | 0.00 | 0.00 | 74 | 1016.4 |
| 20260507152534 | 13 | 159 | 19.3 | 32.2 | 0.00 | 0.00 | 0.00 | 75 | 1016.4 |
| 20260507152035 | 13 | 159 | 22.5 | 32.2 | 0.00 | 0.00 | 0.00 | 75 | 1016.2 |
| 20260507151545 | 13 | 167 | 20.9 | 32.2 | 0.00 | 0.00 | 0.00 | 75 | 1016.4 |
| 20260507151034 | 13 | 168 | 20.9 | 33.8 | 0.00 | 0.00 | 0.00 | 76 | 1016.5 |
| 20260507150535 | 13 | 167 | 22.5 | 33.8 | 0.00 | 0.00 | 0.00 | 76 | 1016.4 |
| 20260507150045 | 12 | 164 | 20.9 | 27.4 | 0.00 | 0.00 | 0.00 | 77 | 1016.5 |
| 20260507145534 | 12 | 164 | 19.3 | 27.4 | 0.00 | 0.00 | 0.00 | 77 | 1016.4 |
| 20260507145035 | 12 | 164 | 16.1 | 27.4 | 0.00 | 0.00 | 0.00 | 78 | 1016.4 |
| 20260507144542 | 12 | 164 | 17.7 | 22.5 | 0.00 | 0.00 | 0.00 | 78 | 1016.4 |
| 20260507144034 | 12 | 164 | 12.9 | 25.7 | 0.00 | 0.00 | 0.00 | 79 | 1016.2 |
| 20260507143535 | 12 | 164 | 9.7 | 25.7 | 0.00 | 0.00 | 0.00 | 79 | 1016.2 |
| 20260507143048 | 12 | 164 | 17.7 | 25.7 | 0.00 | 0.00 | 0.00 | 80 | 1016.1 |
| 20260507142535 | 12 | 164 | 17.7 | 25.7 | 0.00 | 0.00 | 0.00 | 80 | 1016.1 |
| 20260507142035 | 12 | 164 | 14.5 | 27.4 | 0.00 | 0.00 | 0.00 | 80 | 1016.0 |
| 20260507141552 | 12 | 164 | 16.1 | 27.4 | 0.00 | 0.00 | 0.00 | 81 | 1016.1 |
| 20260507141035 | 11 | 164 | 16.1 | 22.5 | 0.00 | 0.00 | 0.00 | 81 | 1016.0 |
| 20260507140535 | 11 | 164 | 12.9 | 22.5 | 0.00 | 0.00 | 0.00 | 81 | 1016.0 |
| 20260507140044 | 11 | 164 | 16.1 | 22.5 | 0.00 | 0.00 | 0.00 | 82 | 1015.9 |
| 20260507135534 | 11 | 164 | 12.9 | 25.7 | 0.00 | 0.00 | 0.00 | 82 | 1015.9 |
| 20260507135034 | 11 | 164 | 11.3 | 25.7 | 0.00 | 0.00 | 0.00 | 82 | 1016.0 |
| 20260507134550 | 11 | 164 | 14.5 | 22.5 | 0.00 | 0.00 | 0.00 | 82 | 1015.9 |
| 20260507134035 | 11 | 164 | 16.1 | 22.5 | 0.00 | 0.00 | 0.00 | 82 | 1015.9 |
| 20260507133534 | 11 | 164 | 17.7 | 25.7 | 0.00 | 0.00 | 0.00 | 82 | 1015.8 |
| 20260507133101 | 11 | 164 | 17.7 | 27.4 | 0.00 | 0.00 | 0.00 | 82 | 1015.7 |
| 20260507132536 | 11 | 164 | 20.9 | 27.4 | 0.00 | 0.00 | 0.00 | 83 | 1015.7 |
| 20260507132033 | 11 | 164 | 19.3 | 25.7 | 0.00 | 0.00 | 0.00 | 84 | 1015.7 |
| 20260507131551 | 10 | 164 | 16.1 | 25.7 | 0.00 | 0.00 | 0.00 | 84 | 1015.6 |
| 20260507131036 | 10 | 164 | 17.7 | 25.7 | 0.00 | 0.00 | 0.00 | 84 | 1015.5 |
| 20260507130535 | 10 | 164 | 17.7 | 25.7 | 0.00 | 0.00 | 0.00 | 83 | 1015.4 |
| 20260507130103 | 10 | 164 | 19.3 | 25.7 | 0.00 | 0.00 | 0.00 | 83 | 1015.5 |
| 20260507125534 | 10 | 164 | 17.7 | 27.4 | 0.00 | 0.00 | 0.00 | 83 | 1015.3 |
| 20260507125034 | 10 | 164 | 19.3 | 29.0 | 0.00 | 0.00 | 0.00 | 83 | 1015.2 |
| 20260507124544 | 10 | 164 | 22.5 | 29.0 | 0.00 | 0.00 | 0.00 | 83 | 1015.2 |
| 20260507124034 | 11 | 164 | 20.9 | 29.0 | 0.00 | 0.00 | 0.00 | 82 | 1015.3 |
| 20260507123531 | 11 | 164 | 22.5 | 30.6 | 0.00 | 0.00 | 0.00 | 83 | 1015.2 |
| 20260507123044 | 11 | 164 | 24.1 | 30.6 | 0.00 | 0.00 | 0.00 | 82 | 1015.1 |
| 20260507122534 | 10 | 166 | 22.5 | 32.2 | 0.00 | 0.00 | 0.00 | 83 | 1015.4 |
| 20260507122035 | 11 | 166 | 24.1 | 33.8 | 0.00 | 0.00 | 0.00 | 82 | 1015.4 |
| 20260507121545 | 11 | 166 | 24.1 | 33.8 | 0.00 | 0.00 | 0.00 | 83 | 1015.2 |
| 20260507121037 | 11 | 166 | 24.1 | 35.4 | 0.00 | 0.00 | 0.00 | 83 | 1015.3 |
| 20260507120534 | 11 | 166 | 29.0 | 35.4 | 0.00 | 0.00 | 0.00 | 83 | 1015.2 |
| 20260507120056 | 10 | 179 | 14.5 | 27.4 | 0.00 | 0.00 | 0.00 | 83 | 1015.3 |
| 20260507115535 | 10 | 179 | 17.7 | 27.4 | 0.00 | 0.00 | 0.00 | 83 | 1015.2 |
| 20260507115034 | 10 | 179 | 12.9 | 27.4 | 0.00 | 0.00 | 0.00 | 82 | 1015.1 |
| 20260507114627 | 10 | 179 | 16.1 | 27.4 | 0.00 | 0.00 | 0.00 | 82 | 1015.2 |
| 20260507114035 | 10 | 179 | 19.3 | 27.4 | 0.00 | 0.00 | 0.00 | 83 | 1015.1 |
| 20260507113534 | 10 | 179 | 14.5 | 24.1 | 0.00 | 0.00 | 0.00 | 82 | 1015.1 |
| 20260507113045 | 10 | 180 | 16.1 | 22.5 | 0.00 | 0.00 | 0.00 | 83 | 1015.2 |
| 20260507112535 | 10 | 183 | 11.3 | 19.3 | 0.00 | 0.00 | 0.00 | 83 | 1015.2 |
| 20260507112036 | 10 | 183 | 4.8 | 25.7 | 0.00 | 0.00 | 0.00 | 83 | 1015.3 |
| 20260507111543 | 11 | 183 | 8.0 | 25.7 | 0.00 | 0.00 | 0.00 | 83 | 1015.4 |
| 20260507111033 | 11 | 183 | 14.5 | 25.7 | 0.00 | 0.00 | 0.00 | 83 | 1015.1 |
| 20260507110534 | 10 | 171 | 4.8 | 12.9 | 0.00 | 0.00 | 0.00 | 83 | 1015.1 |
| 20260507110045 | 10 | 171 | 1.6 | 19.3 | 0.00 | 0.00 | 0.00 | 82 | 1015.2 |
| 20260507105551 | 10 | 0 | 6.4 | 24.1 | 0.00 | 0.00 | 0.00 | 82 | 1015.5 |
| 20260507105037 | 10 | 171 | 12.9 | 24.1 | 0.00 | 0.00 | 0.00 | 82 | 1015.2 |
| 20260507104547 | 10 | 171 | 11.3 | 24.1 | 0.00 | 0.00 | 0.00 | 81 | 1015.0 |
| 20260507104035 | 11 | 171 | 11.3 | 24.1 | 0.00 | 0.00 | 0.00 | 81 | 1015.0 |
| 20260507103534 | 11 | 171 | 16.1 | 25.7 | 0.00 | 0.00 | 0.00 | 80 | 1014.9 |
| 20260507103046 | 11 | 171 | 17.7 | 29.0 | 0.00 | 0.00 | 0.00 | 79 | 1014.8 |
| 20260507102531 | 11 | 171 | 20.9 | 29.0 | 0.00 | 0.00 | 0.00 | 79 | 1014.8 |
| 20260507102038 | 11 | 178 | 14.5 | 22.5 | 0.00 | 0.00 | 0.00 | 76 | 1014.9 |
| 20260507101546 | 12 | 179 | 14.5 | 24.1 | 0.00 | 0.00 | 0.00 | 71 | 1014.8 |
| 20260507101034 | 12 | 183 | 17.7 | 29.0 | 0.00 | 0.00 | 0.00 | 70 | 1014.9 |
| 20260507100535 | 12 | 183 | 19.3 | 29.0 | 0.00 | 0.00 | 0.00 | 69 | 1014.7 |
| 20260507100043 | 12 | 183 | 19.3 | 27.4 | 0.00 | 0.00 | 0.00 | 68 | 1014.7 |
| 20260507095534 | 12 | 183 | 17.7 | 32.2 | 0.00 | 0.00 | 0.00 | 69 | 1014.6 |
| 20260507095034 | 13 | 183 | 22.5 | 32.2 | 0.00 | 0.00 | 0.00 | 69 | 1014.6 |
| 20260507094539 | 12 | 180 | 24.1 | 30.6 | 0.00 | 0.00 | 0.00 | 71 | 1014.6 |
| 20260507094034 | 12 | 172 | 22.5 | 32.2 | 0.00 | 0.00 | 0.00 | 75 | 1014.6 |
| 20260507093534 | 11 | 172 | 22.5 | 32.2 | 0.00 | 0.00 | 0.00 | 76 | 1014.6 |
| 20260507093049 | 11 | 172 | 20.9 | 27.4 | 0.00 | 0.00 | 0.00 | 75 | 1014.6 |
| 20260507092535 | 12 | 172 | 14.5 | 25.7 | 0.00 | 0.00 | 0.00 | 74 | 1014.7 |
| 20260507092035 | 12 | 172 | 17.7 | 30.6 | 0.00 | 0.00 | 0.00 | 74 | 1014.7 |
| 20260507091547 | 12 | 172 | 22.5 | 30.6 | 0.00 | 0.00 | 0.00 | 73 | 1014.8 |
| 20260507091034 | 12 | 172 | 22.5 | 30.6 | 0.00 | 0.00 | 0.00 | 73 | 1014.6 |
| 20260507090537 | 12 | 172 | 22.5 | 32.2 | 0.00 | 0.00 | 0.00 | 73 | 1014.6 |
| 20260507090048 | 12 | 172 | 19.3 | 32.2 | 0.00 | 0.00 | 0.00 | 72 | 1014.5 |
| 20260507085536 | 12 | 172 | 22.5 | 27.4 | 0.00 | 0.00 | 0.00 | 72 | 1014.5 |
| 20260507085034 | 12 | 172 | 20.9 | 27.4 | 0.00 | 0.00 | 0.00 | 72 | 1014.7 |
| 20260507084553 | 12 | 172 | 17.7 | 24.1 | 0.00 | 0.00 | 0.00 | 72 | 1014.7 |
| 20260507084033 | 12 | 172 | 16.1 | 22.5 | 0.00 | 0.00 | 0.00 | 71 | 1014.7 |
| 20260507083531 | 12 | 172 | 14.5 | 22.5 | 0.00 | 0.00 | 0.00 | 71 | 1014.8 |
| 20260507083041 | 13 | 172 | 12.9 | 20.9 | 0.00 | 0.00 | 0.00 | 70 | 1014.7 |
| 20260507082534 | 13 | 172 | 14.5 | 22.5 | 0.00 | 0.00 | 0.00 | 70 | 1014.7 |
| 20260507082034 | 13 | 172 | 14.5 | 25.7 | 0.00 | 0.00 | 0.00 | 70 | 1014.8 |
| 20260507081540 | 13 | 172 | 14.5 | 25.7 | 0.00 | 0.00 | 0.00 | 69 | 1014.7 |
| 20260507081037 | 13 | 172 | 17.7 | 24.1 | 0.00 | 0.00 | 0.00 | 70 | 1014.9 |
| 20260507080535 | 13 | 172 | 16.1 | 25.7 | 0.00 | 0.00 | 0.00 | 70 | 1014.6 |
| 20260507080045 | 13 | 172 | 17.7 | 29.0 | 0.00 | 0.00 | 0.00 | 69 | 1014.5 |
| 20260507075534 | 13 | 172 | 22.5 | 29.0 | 0.00 | 0.00 | 0.00 | 70 | 1014.4 |
| 20260507075034 | 13 | 172 | 20.9 | 25.7 | 0.00 | 0.00 | 0.00 | 69 | 1014.5 |
| 20260507074554 | 13 | 172 | 16.1 | 25.7 | 0.00 | 0.00 | 0.00 | 67 | 1014.6 |
| 20260507074034 | 14 | 172 | 16.1 | 24.1 | 0.00 | 0.00 | 0.00 | 66 | 1014.7 |
| 20260507073534 | 14 | 172 | 16.1 | 27.4 | 0.00 | 0.00 | 0.00 | 66 | 1014.6 |
| 20260507073046 | 14 | 172 | 19.3 | 32.2 | 0.00 | 0.00 | 0.00 | 65 | 1014.6 |
| 20260507072531 | 15 | 172 | 22.5 | 33.8 | 0.00 | 0.00 | 0.00 | 64 | 1014.5 |
| 20260507072034 | 14 | 172 | 20.9 | 33.8 | 0.00 | 0.00 | 0.00 | 64 | 1014.4 |
| 20260507071548 | 14 | 188 | 17.7 | 24.1 | 0.00 | 0.00 | 0.00 | 65 | 1014.2 |
| 20260507071043 | 14 | 203 | 16.1 | 27.4 | 0.00 | 0.00 | 0.00 | 62 | 1014.2 |
| 20260507070535 | 16 | 208 | 12.9 | 27.4 | 0.00 | 0.00 | 0.00 | 53 | 1014.1 |
| 20260507070055 | 16 | 208 | 20.9 | 27.4 | 0.00 | 0.00 | 0.00 | 48 | 1014.1 |
| 20260507065536 | 16 | 200 | 14.5 | 32.2 | 0.00 | 0.00 | 0.00 | 51 | 1014.2 |
| 20260507065034 | 16 | 200 | 20.9 | 32.2 | 0.00 | 0.00 | 0.00 | 51 | 1014.2 |
| 20260507064546 | 16 | 208 | 14.5 | 25.7 | 0.00 | 0.00 | 0.00 | 53 | 1014.2 |
| 20260507064034 | 16 | 209 | 16.1 | 32.2 | 0.00 | 0.00 | 0.00 | 50 | 1014.2 |
| 20260507063534 | 17 | 209 | 19.3 | 32.2 | 0.00 | 0.00 | 0.00 | 46 | 1014.1 |
| 20260507063050 | 17 | 209 | 22.5 | 32.2 | 0.00 | 0.00 | 0.00 | 45 | 1013.9 |
| 20260507062535 | 17 | 205 | 20.9 | 37.0 | 0.00 | 0.00 | 0.00 | 45 | 1013.8 |
| 20260507062035 | 17 | 204 | 25.7 | 37.0 | 0.00 | 0.00 | 0.00 | 44 | 1013.8 |
| 20260507061549 | 17 | 198 | 20.9 | 40.2 | 0.00 | 0.00 | 0.00 | 46 | 1013.8 |
| 20260507061031 | 17 | 192 | 24.1 | 40.2 | 0.00 | 0.00 | 0.00 | 46 | 1013.8 |
| 20260507060534 | 16 | 183 | 14.5 | 38.6 | 0.00 | 0.00 | 0.00 | 47 | 1013.8 |
| 20260507060050 | 17 | 183 | 20.9 | 38.6 | 0.00 | 0.00 | 0.00 | 46 | 1013.8 |
| 20260507055534 | 17 | 187 | 20.9 | 37.0 | 0.00 | 0.00 | 0.00 | 44 | 1013.8 |
| 20260507055034 | 17 | 202 | 19.3 | 30.6 | 0.00 | 0.00 | 0.00 | 45 | 1013.8 |
| 20260507054539 | 17 | 202 | 17.7 | 30.6 | 0.00 | 0.00 | 0.00 | 45 | 1013.8 |
| 20260507054034 | 16 | 202 | 19.3 | 27.4 | 0.00 | 0.00 | 0.00 | 47 | 1013.6 |
| 20260507053535 | 16 | 219 | 16.1 | 24.1 | 0.00 | 0.00 | 0.00 | 47 | 1013.7 |
| 20260507053046 | 17 | 222 | 14.5 | 22.5 | 0.00 | 0.00 | 0.00 | 46 | 1013.7 |
| 20260507052534 | 17 | 223 | 16.1 | 22.5 | 0.00 | 0.00 | 0.00 | 43 | 1013.7 |
| 20260507052034 | 18 | 223 | 12.9 | 17.7 | 0.00 | 0.00 | 0.00 | 42 | 1013.6 |
| 20260507051548 | 18 | 223 | 9.7 | 14.5 | 0.00 | 0.00 | 0.00 | 41 | 1013.5 |
| 20260507051031 | 18 | 223 | 4.8 | 17.7 | 0.00 | 0.00 | 0.00 | 40 | 1013.5 |
| 20260507050534 | 19 | 223 | 8.0 | 25.7 | 0.00 | 0.00 | 0.00 | 39 | 1013.3 |
| 20260507050044 | 19 | 223 | 12.9 | 30.6 | 0.00 | 0.00 | 0.00 | 39 | 1013.3 |
| 20260507045531 | 19 | 224 | 19.3 | 30.6 | 0.00 | 0.00 | 0.00 | 38 | 1013.3 |
| 20260507045034 | 18 | 223 | 17.7 | 30.6 | 0.00 | 0.00 | 0.00 | 39 | 1013.2 |
| 20260507044539 | 18 | 221 | 20.9 | 30.6 | 0.00 | 0.00 | 0.00 | 40 | 1013.1 |
| 20260507044035 | 18 | 221 | 16.1 | 29.0 | 0.00 | 0.00 | 0.00 | 40 | 1013.0 |
| 20260507043535 | 18 | 221 | 19.3 | 32.2 | 0.00 | 0.00 | 0.00 | 40 | 1013.1 |
| 20260507043047 | 18 | 221 | 20.9 | 32.2 | 0.00 | 0.00 | 0.00 | 40 | 1012.9 |
| 20260507042537 | 18 | 221 | 17.7 | 27.4 | 0.00 | 0.00 | 0.00 | 39 | 1013.0 |
| 20260507042034 | 19 | 223 | 17.7 | 25.7 | 0.00 | 0.00 | 0.00 | 37 | 1012.9 |
| 20260507041551 | 20 | 225 | 16.1 | 30.6 | 0.00 | 0.00 | 0.00 | 36 | 1013.0 |
| 20260507041034 | 20 | 224 | 17.7 | 30.6 | 0.00 | 0.00 | 0.00 | 35 | 1012.9 |
| 20260507040535 | 20 | 221 | 19.3 | 37.0 | 0.00 | 0.00 | 0.00 | 34 | 1012.8 |
| 20260507040053 | 21 | 220 | 24.1 | 37.0 | 0.00 | 0.00 | 0.00 | 33 | 1012.7 |
| 20260507035534 | 21 | 218 | 24.1 | 35.4 | 0.00 | 0.00 | 0.00 | 33 | 1012.7 |
| 20260507035034 | 20 | 211 | 19.3 | 25.7 | 0.00 | 0.00 | 0.00 | 34 | 1012.7 |
| 20260507034541 | 20 | 209 | 16.1 | 25.7 | 0.00 | 0.00 | 0.00 | 33 | 1012.6 |
| 20260507034035 | 21 | 209 | 16.1 | 25.7 | 0.00 | 0.00 | 0.00 | 32 | 1012.7 |
| 20260507033535 | 21 | 209 | 11.3 | 24.1 | 0.00 | 0.00 | 0.00 | 31 | 1012.6 |
| 20260507033040 | 21 | 207 | 12.9 | 24.1 | 0.00 | 0.00 | 0.00 | 31 | 1012.5 |
| 20260507032535 | 21 | 206 | 12.9 | 22.5 | 0.00 | 0.00 | 0.00 | 31 | 1012.5 |
| 20260507032033 | 21 | 205 | 12.9 | 20.9 | 0.00 | 0.00 | 0.00 | 31 | 1012.4 |
| 20260507031538 | 21 | 205 | 12.9 | 20.9 | 0.00 | 0.00 | 0.00 | 32 | 1012.4 |
| 20260507031038 | 21 | 204 | 12.9 | 19.3 | 0.00 | 0.00 | 0.00 | 32 | 1012.3 |
| 20260507030535 | 21 | 204 | 12.9 | 19.3 | 0.00 | 0.00 | 0.00 | 33 | 1012.2 |
| 20260507030043 | 21 | 204 | 14.5 | 19.3 | 0.00 | 0.00 | 0.00 | 34 | 1012.2 |
| 20260507025534 | 21 | 204 | 11.3 | 19.3 | 0.00 | 0.00 | 0.00 | 38 | 1012.0 |
| 20260507025034 | 22 | 204 | 14.5 | 19.3 | 0.00 | 0.00 | 0.00 | 35 | 1012.1 |
| 20260507024550 | 22 | 204 | 12.9 | 19.3 | 0.00 | 0.00 | 0.00 | 39 | 1012.1 |
| 20260507024037 | 22 | 204 | 14.5 | 19.3 | 0.00 | 0.00 | 0.00 | 41 | 1012.0 |
| 20260507023536 | 22 | 204 | 11.3 | 16.1 | 0.00 | 0.00 | 0.00 | 47 | 1012.0 |
| 20260507023049 | 22 | 204 | 12.9 | 16.1 | 0.00 | 0.00 | 0.00 | 46 | 1012.1 |
| 20260507022538 | 22 | 204 | 11.3 | 17.7 | 0.00 | 0.00 | 0.00 | 47 | 1012.1 |
| 20260507022031 | 22 | 204 | 12.9 | 19.3 | 0.00 | 0.00 | 0.00 | 48 | 1012.2 |
| 20260507021544 | 23 | 204 | 14.5 | 19.3 | 0.00 | 0.00 | 0.00 | 48 | 1012.2 |
| 20260507021039 | 23 | 204 | 14.5 | 22.5 | 0.00 | 0.00 | 0.00 | 46 | 1012.2 |
| 20260507020535 | 23 | 204 | 16.1 | 22.5 | 0.00 | 0.00 | 0.00 | 49 | 1012.2 |
| 20260507020059 | 23 | 204 | 17.7 | 24.1 | 0.00 | 0.00 | 0.00 | 48 | 1012.2 |
| 20260507015534 | 23 | 204 | 16.1 | 24.1 | 0.00 | 0.00 | 0.00 | 49 | 1012.2 |
| 20260507015034 | 23 | 204 | 19.3 | 25.7 | 0.00 | 0.00 | 0.00 | 49 | 1012.1 |
| 20260507014540 | 23 | 204 | 19.3 | 25.7 | 0.00 | 0.00 | 0.00 | 48 | 1012.0 |
| 20260507014035 | 23 | 204 | 17.7 | 27.4 | 0.00 | 0.00 | 0.00 | 49 | 1012.0 |
| 20260507013535 | 23 | 204 | 17.7 | 27.4 | 0.00 | 0.00 | 0.00 | 50 | 1012.0 |
| 20260507013050 | 23 | 204 | 17.7 | 27.4 | 0.00 | 0.00 | 0.00 | 50 | 1011.9 |
| 20260507012534 | 23 | 205 | 16.1 | 22.5 | 0.00 | 0.00 | 0.00 | 49 | 1012.0 |
| 20260507012031 | 23 | 205 | 14.5 | 24.1 | 0.00 | 0.00 | 0.00 | 50 | 1012.0 |
| 20260507011545 | 23 | 205 | 17.7 | 24.1 | 0.00 | 0.00 | 0.00 | 49 | 1011.9 |
| 20260507011036 | 23 | 205 | 17.7 | 24.1 | 0.00 | 0.00 | 0.00 | 49 | 1012.0 |
| 20260507010534 | 23 | 205 | 16.1 | 24.1 | 0.00 | 0.00 | 0.00 | 49 | 1012.0 |
| 20260507010042 | 23 | 205 | 17.7 | 22.5 | 0.00 | 0.00 | 0.00 | 48 | 1012.1 |
| 20260507005534 | 24 | 205 | 14.5 | 20.9 | 0.00 | 0.00 | 0.00 | 47 | 1012.0 |
| 20260507005036 | 24 | 205 | 14.5 | 22.5 | 0.00 | 0.00 | 0.00 | 46 | 1011.9 |
| 20260507004551 | 24 | 205 | 14.5 | 22.5 | 0.00 | 0.00 | 0.00 | 45 | 1011.9 |
| 20260507004036 | 24 | 205 | 16.1 | 22.5 | 0.00 | 0.00 | 0.00 | 44 | 1011.9 |
| 20260507003534 | 24 | 205 | 14.5 | 22.5 | 0.00 | 0.00 | 0.00 | 43 | 1011.9 |
| 20260507003051 | 25 | 205 | 14.5 | 27.4 | 0.00 | 0.00 | 0.00 | 41 | 1011.8 |
| 20260507002534 | 25 | 206 | 17.7 | 27.4 | 0.00 | 0.00 | 0.00 | 40 | 1011.7 |
| 20260507002035 | 25 | 205 | 17.7 | 25.7 | 0.00 | 0.00 | 0.00 | 38 | 1011.8 |
| 20260507001547 | 25 | 195 | 16.1 | 25.7 | 0.00 | 0.00 | 0.00 | 37 | 1011.8 |
| 20260507001034 | 25 | 195 | 14.5 | 29.0 | 0.00 | 0.00 | 0.00 | 39 | 1011.6 |
| 20260507000531 | 25 | 195 | 14.5 | 29.0 | 0.00 | 0.00 | 0.00 | 40 | 1011.7 |
| 20260507000046 | 25 | 202 | 16.1 | 30.6 | 0.00 | 0.00 | 0.00 | 40 | 1011.6 |
| 20260506235533 | 25 | 198 | 20.9 | 30.6 | 0.00 | 0.00 | 0.00 | 38 | 1011.7 |
| 20260506235035 | 25 | 198 | 16.1 | 29.0 | 0.00 | 0.00 | 0.00 | 38 | 1011.7 |
| 20260506234544 | 25 | 198 | 19.3 | 29.0 | 0.00 | 0.00 | 0.00 | 37 | 1011.8 |
| 20260506234035 | 25 | 202 | 19.3 | 29.0 | 0.00 | 0.00 | 0.00 | 36 | 1011.7 |
| 20260506233535 | 25 | 197 | 14.5 | 27.4 | 0.00 | 0.00 | 0.00 | 38 | 1011.7 |
| 20260506233053 | 25 | 197 | 20.9 | 32.2 | 0.00 | 0.00 | 0.00 | 36 | 1011.6 |
| 20260506232534 | 25 | 197 | 20.9 | 32.2 | 0.00 | 0.00 | 0.00 | 34 | 1011.8 |
| 20260506232034 | 25 | 213 | 19.3 | 30.6 | 0.00 | 0.00 | 0.00 | 35 | 1011.8 |
| 20260506231554 | 25 | 219 | 20.9 | 30.6 | 0.00 | 0.00 | 0.00 | 37 | 1011.9 |
| 20260506231034 | 25 | 216 | 20.9 | 37.0 | 0.00 | 0.00 | 0.00 | 37 | 1011.8 |
| 20260506230534 | 25 | 219 | 19.3 | 37.0 | 0.00 | 0.00 | 0.00 | 37 | 1011.9 |
| 20260506230052 | 25 | 217 | 25.7 | 35.4 | 0.00 | 0.00 | 0.00 | 35 | 1011.9 |
| 20260506225534 | 25 | 203 | 19.3 | 33.8 | 0.00 | 0.00 | 0.00 | 36 | 1012.0 |
| 20260506225034 | 25 | 202 | 22.5 | 33.8 | 0.00 | 0.00 | 0.00 | 37 | 1012.2 |
| 20260506224545 | 26 | 202 | 19.3 | 30.6 | 0.00 | 0.00 | 0.00 | 36 | 1012.2 |
| 20260506224037 | 25 | 198 | 20.9 | 32.2 | 0.00 | 0.00 | 0.00 | 38 | 1012.3 |
| 20260506223535 | 25 | 198 | 24.1 | 32.2 | 0.00 | 0.00 | 0.00 | 37 | 1012.4 |
| 20260506223045 | 25 | 209 | 19.3 | 35.4 | 0.00 | 0.00 | 0.00 | 37 | 1012.3 |
| 20260506222535 | 25 | 214 | 22.5 | 35.4 | 0.00 | 0.00 | 0.00 | 38 | 1012.5 |
| 20260506222034 | 25 | 223 | 24.1 | 37.0 | 0.00 | 0.00 | 0.00 | 37 | 1012.6 |
| 20260506221541 | 25 | 221 | 27.4 | 37.0 | 0.00 | 0.00 | 0.00 | 37 | 1012.6 |
| 20260506221035 | 25 | 221 | 24.1 | 35.4 | 0.00 | 0.00 | 0.00 | 37 | 1012.7 |
| 20260506220535 | 25 | 217 | 19.3 | 35.4 | 0.00 | 0.00 | 0.00 | 37 | 1012.7 |
| 20260506220043 | 25 | 222 | 20.9 | 35.4 | 0.00 | 0.00 | 0.00 | 38 | 1012.7 |
| 20260506215534 | 25 | 214 | 17.7 | 30.6 | 0.00 | 0.00 | 0.00 | 37 | 1012.8 |
| 20260506215036 | 25 | 211 | 20.9 | 33.8 | 0.00 | 0.00 | 0.00 | 38 | 1012.9 |
| 20260506214552 | 25 | 212 | 24.1 | 33.8 | 0.00 | 0.00 | 0.00 | 36 | 1012.9 |
| 20260506214035 | 25 | 215 | 14.5 | 30.6 | 0.00 | 0.00 | 0.00 | 39 | 1012.9 |
| 20260506213535 | 25 | 214 | 22.5 | 30.6 | 0.00 | 0.00 | 0.00 | 37 | 1013.1 |
| 20260506213101 | 25 | 213 | 16.1 | 30.6 | 0.00 | 0.00 | 0.00 | 37 | 1013.1 |
| 20260506212534 | 25 | 215 | 19.3 | 29.0 | 0.00 | 0.00 | 0.00 | 36 | 1013.1 |
| 20260506212034 | 25 | 219 | 17.7 | 35.4 | 0.00 | 0.00 | 0.00 | 38 | 1013.2 |
| 20260506211547 | 25 | 219 | 20.9 | 35.4 | 0.00 | 0.00 | 0.00 | 37 | 1013.2 |
| 20260506211034 | 25 | 215 | 19.3 | 35.4 | 0.00 | 0.00 | 0.00 | 41 | 1013.2 |